Augusta Bush, GA

4:15 AM EDT on April 23, 2017 (GMT -0400)
Augusta Regional At Bush

Weather History for KAGS - July, 2013

Change the Weather History Date:

Thursday, July 4, 2013

  Actual Average Record
Temperature  
Mean Temperature 80 °F 81 °F  
Max Temperature 89 °F 93 °F 102 °F (1993)
Min Temperature 71 °F 69 °F 59 °F (2010)
Degree Days  
Heating Degree Days 0 0  
Month to date heating degree days 0 0  
Since 1 June heating degree days 0 0  
Since 1 July heating degree days 0 0  
Cooling Degree Days 15 16  
Month to date cooling degree days 51 64  
Year to date cooling degree days 652 755  
Since 1 June cooling degree days 443 472  
Growing Degree Days 30 (Base 50)    
Moisture  
Dew Point 72 °F    
Average Humidity 83    
Maximum Humidity 100    
Minimum Humidity 65    
Precipitation  
Precipitation 0.25 in 0.13 in 1.77 in (1927)
Month to date precipitation 1.39 0.54  
Year to date precipitation 31.82 22.76  
Sea Level Pressure  
Sea Level Pressure 30.16 in    
Wind  
Wind Speed 7 mph (SE)    
Max Wind Speed 20 mph    
Max Gust Speed 25 mph    
Visibility 9 miles    
Events Rain , Thunderstorm    
T = Trace of Precipitation, MM = Missing Value Source: NWS Daily Summary

Daily Weather History Graph

Daily Weather History Graph

Search for Another Location

Airport or City:

Trip Planner

Search our weather history database for the weather conditions in past years. The results will help you decide how hot, cold, wet, or windy it might be!

Date:

Astronomy

Jul. 04, 2013 Rise Set
Actual Time 6:23 AM EDT 8:41 PM EDT
Civil Twilight 5:54 AM EDT 9:09 PM EDT
Nautical Twilight 5:19 AM EDT 9:44 PM EDT
Astronomical Twilight 4:41 AM EDT 10:23 PM EDT
Moon 3:35 AM EDT (7/4) 5:47 PM EDT (7/4)
Length of Visible Light 15h 15m
Length of Day
14h 17m
Waning Crescent, 11% of the Moon is Illuminated
Jul 4
Waning Crescent
Jul 8
New
Jul 15
First Quarter
Jul 22
Full
Jul 29
Last Quarter

Hourly Weather History & Observations

Time (EDT) Temp. Heat Index Dew Point Humidity Pressure Visibility Wind Dir Wind Speed Gust Speed Precip Events Conditions
12:17 AM 73.4 °F - 71.6 °F 94% 30.18 in 10.0 mi Calm Calm - N/A   Overcast
12:29 AM 71.6 °F - 71.6 °F 100% 30.18 in 10.0 mi Calm Calm - N/A   Overcast
12:53 AM 73.0 °F - 72.0 °F 96% 30.17 in 10.0 mi Calm Calm - N/A   Overcast
1:26 AM 73.4 °F - 73.4 °F 100% 30.18 in 10.0 mi Calm Calm - N/A   Overcast
1:36 AM 73.4 °F - 73.4 °F 100% 30.18 in 10.0 mi Calm Calm - N/A   Overcast
1:53 AM 73.9 °F - 73.0 °F 97% 30.17 in 10.0 mi Calm Calm - N/A   Overcast
2:00 AM 73.4 °F - 73.4 °F 100% 30.17 in 9.0 mi Calm Calm - N/A   Overcast
2:53 AM 72.0 °F - 69.1 °F 91% 30.15 in 10.0 mi West 6.9 mph - N/A   Overcast
3:32 AM 71.6 °F - 69.8 °F 94% 30.15 in 10.0 mi NNW 3.5 mph - 0.03 in Rain Light Rain
3:42 AM 71.6 °F - 69.8 °F 94% 30.16 in 6.0 mi NNE 3.5 mph - 0.05 in Rain Light Rain
3:53 AM 71.1 °F - 70.0 °F 96% 30.15 in 8.0 mi NNE 3.5 mph - 0.05 in Rain Light Rain
4:03 AM 71.6 °F - 69.8 °F 94% 30.15 in 10.0 mi NNE 5.8 mph - 0.00 in   Overcast
4:53 AM 71.1 °F - 70.0 °F 96% 30.14 in 10.0 mi Calm Calm - 0.02 in Rain Light Rain
5:04 AM 71.6 °F - 69.8 °F 94% 30.15 in 10.0 mi NNW 3.5 mph - 0.00 in   Overcast
5:11 AM 71.6 °F - 69.8 °F 94% 30.15 in 10.0 mi Calm Calm - 0.00 in   Overcast
5:53 AM 72.0 °F - 71.1 °F 97% 30.15 in 10.0 mi North 3.5 mph - 0.01 in   Overcast
6:08 AM 71.6 °F - 71.6 °F 100% 30.16 in 10.0 mi Calm Calm - N/A   Overcast
6:24 AM 71.6 °F - 71.6 °F 100% 30.16 in 10.0 mi Calm Calm - 0.01 in   Overcast
6:53 AM 73.0 °F - 72.0 °F 96% 30.16 in 10.0 mi Calm Calm - 0.01 in   Overcast
7:53 AM 75.0 °F - 73.9 °F 96% 30.17 in 9.0 mi SE 5.8 mph - N/A   Overcast
8:53 AM 78.1 °F - 75.9 °F 93% 30.18 in 7.0 mi SE 6.9 mph - N/A   Overcast
9:53 AM 81.0 °F 86.7 °F 75.0 °F 82% 30.17 in 10.0 mi SSE 10.4 mph - 0.01 in   Mostly Cloudy
10:53 AM 82.9 °F 90.8 °F 75.9 °F 79% 30.17 in 10.0 mi SE 6.9 mph - 0.00 in   Mostly Cloudy
11:53 AM 84.9 °F 92.1 °F 73.9 °F 69% 30.16 in 10.0 mi SE 11.5 mph - N/A   Scattered Clouds
12:49 PM 87.8 °F 95.6 °F 73.4 °F 62% 30.15 in 10.0 mi SE 10.4 mph 19.6 mph N/A Thunderstorm Scattered Clouds
12:53 PM 88.0 °F 96.5 °F 73.9 °F 63% 30.14 in 10.0 mi SSE 13.8 mph 18.4 mph N/A Thunderstorm Scattered Clouds
1:15 PM 87.8 °F 95.6 °F 73.4 °F 62% 30.15 in 10.0 mi SE 12.7 mph 20.7 mph N/A   Scattered Clouds
1:53 PM 89.1 °F 97.0 °F 73.0 °F 59% 30.13 in 10.0 mi SSE 17.3 mph 21.9 mph N/A   Scattered Clouds
2:53 PM 84.9 °F 90.7 °F 72.0 °F 65% 30.11 in 10.0 mi SE 10.4 mph - 0.00 in   Scattered Clouds
3:53 PM 84.9 °F 91.4 °F 73.0 °F 67% 30.11 in 10.0 mi SE 10.4 mph - 0.00 in   Scattered Clouds
4:01 PM 84.2 °F 90.9 °F 73.4 °F 70% 30.12 in 10.0 mi SSE 6.9 mph - N/A Thunderstorm Scattered Clouds
4:16 PM 84.2 °F 90.9 °F 73.4 °F 70% 30.12 in 10.0 mi SSE 8.1 mph - N/A   Scattered Clouds
4:53 PM 82.9 °F 88.8 °F 73.0 °F 72% 30.12 in 10.0 mi SSE 8.1 mph - N/A   Clear
5:53 PM 84.0 °F 89.6 °F 72.0 °F 67% 30.13 in 10.0 mi SSE 10.4 mph 18.4 mph N/A   Partly Cloudy
6:53 PM 82.0 °F 86.3 °F 71.1 °F 69% 30.14 in 10.0 mi South 8.1 mph - N/A   Clear
7:53 PM 80.1 °F 83.8 °F 72.0 °F 76% 30.15 in 10.0 mi SSE 8.1 mph - N/A   Clear
8:53 PM 78.1 °F - 73.0 °F 84% 30.16 in 10.0 mi SSE 4.6 mph - 0.01 in   Scattered Clouds
9:47 PM 73.4 °F - 71.6 °F 94% 30.19 in 2.5 mi SSW 10.4 mph 17.3 mph 0.03 in Rain Heavy Rain
9:53 PM 73.0 °F - 70.0 °F 90% 30.17 in 1.5 mi South 6.9 mph 17.3 mph 0.12 in Rain Heavy Rain
9:56 PM 73.4 °F - 69.8 °F 88% 30.17 in 2.0 mi SE 4.6 mph 17.3 mph 0.03 in Rain Heavy Rain
10:03 PM 73.4 °F - 69.8 °F 88% 30.17 in 6.0 mi South 5.8 mph - 0.04 in Rain Light Rain
10:20 PM 71.6 °F - 69.8 °F 94% 30.18 in 10.0 mi South 4.6 mph - 0.05 in   Mostly Cloudy
10:53 PM 72.0 °F - 70.0 °F 93% 30.18 in 10.0 mi South 5.8 mph - 0.05 in   Partly Cloudy
11:53 PM 72.0 °F - 71.1 °F 97% 30.19 in 10.0 mi East 3.5 mph - N/A   Clear